• In Czech Republic
  • List of Countries
  • For 7 days
  • Water Temperature
  • Satellite Maps
  • Weather Map
  • Weather Widgets
  • user-avatar
    Login

    Hourly Weather Myamlino

    Today, 22 September, Saturday

    Time Temperature Precipitation Wind Pressure Humidity
    00:00 +16°C° 0 mm 2 mps 747 mmHg 93%
    01:00 +16°C° 0 mm 2 mps 747 mmHg 94%
    02:00 +16°C° 0 mm 2 mps 746 mmHg 96%
    03:00 +16°C° 0 mm 3 mps 746 mmHg 95%
    04:00 +16°C° 0 mm 3 mps 746 mmHg 94%
    05:00 +16°C° 0 mm 3 mps 746 mmHg 94%
    06:00 +17°C° 0 mm 4 mps 746 mmHg 89%
    07:00 +18°C° 0 mm 4 mps 745 mmHg 83%
    08:00 +20°C° 0 mm 5 mps 745 mmHg 77%
    09:00 +21°C° 0 mm 5 mps 744 mmHg 70%
    10:00 +22°C° 0 mm 6 mps 744 mmHg 63%
    11:00 +24°C° 0 mm 6 mps 744 mmHg 56%
    12:00 +24°C° 0 mm 6 mps 743 mmHg 54%
    13:00 +24°C° 0 mm 6 mps 743 mmHg 53%
    14:00 +26°C° 0 mm 6 mps 742 mmHg 51%
    15:00 +25°C° 0 mm 5 mps 742 mmHg 55%
    16:00 +22°C° 0 mm 5 mps 741 mmHg 60%
    17:00 +21°C° 0 mm 4 mps 741 mmHg 64%
    18:00 +20°C° 0.2 mm 4 mps 741 mmHg 70%
    19:00 +18°C° 0.2 mm 4 mps 741 mmHg 76%
    20:00 +17°C° 0.2 mm 4 mps 741 mmHg 82%
    21:00 +15°C° 0.1 mm 4 mps 741 mmHg 85%
    22:00 +14°C° 0.1 mm 4 mps 741 mmHg 87%
    23:00 +12°C° 0.1 mm 3 mps 741 mmHg 90%

    Tomorrow, 23 September, Sunday

    Time Temperature Precipitation Wind Pressure Humidity
    00:00 +12°C° 0.6 mm 3 mps 741 mmHg 90%
    01:00 +11°C° 0.6 mm 4 mps 741 mmHg 90%
    02:00 +10°C° 0.6 mm 4 mps 741 mmHg 91%
    03:00 +10°C° 1.4 mm 3 mps 741 mmHg 92%
    04:00 +9°C° 1.4 mm 3 mps 740 mmHg 93%
    05:00 +9°C° 1.4 mm 3 mps 740 mmHg 94%
    06:00 +9°C° 1 mm 3 mps 740 mmHg 93%
    07:00 +10°C° 1 mm 3 mps 740 mmHg 92%
    08:00 +10°C° 1 mm 3 mps 740 mmHg 91%
    09:00 +11°C° 0.1 mm 3 mps 740 mmHg 87%
    10:00 +11°C° 0.1 mm 4 mps 741 mmHg 82%
    11:00 +12°C° 0.1 mm 4 mps 741 mmHg 78%
    12:00 +13°C° 0.1 mm 4 mps 741 mmHg 73%
    13:00 +13°C° 0.1 mm 4 mps 740 mmHg 68%
    14:00 +14°C° 0.1 mm 4 mps 740 mmHg 64%
    15:00 +13°C° 0.1 mm 4 mps 740 mmHg 68%
    16:00 +12°C° 0.1 mm 3 mps 740 mmHg 73%
    17:00 +12°C° 0.1 mm 3 mps 740 mmHg 77%
    18:00 +11°C° 0.2 mm 3 mps 740 mmHg 81%
    19:00 +10°C° 0.2 mm 3 mps 740 mmHg 85%
    20:00 +9°C° 0.2 mm 3 mps 740 mmHg 88%
    21:00 +9°C° 0 mm 3 mps 740 mmHg 89%
    22:00 +8°C° 0 mm 3 mps 740 mmHg 90%
    23:00 +8°C° 0 mm 3 mps 740 mmHg 91%

    Day after tomorrow, 24 September, Monday

    Time Temperature Precipitation Wind Pressure Humidity
    00:00 +7°C° 0 mm 3 mps 741 mmHg 92%
    01:00 +7°C° 0 mm 3 mps 741 mmHg 93%
    02:00 +7°C° 0 mm 3 mps 741 mmHg 94%
    03:00 +7°C° 0 mm 3 mps 741 mmHg 94%
    04:00 +5°C° 0 mm 3 mps 741 mmHg 95%
    05:00 +5°C° 0 mm 3 mps 740 mmHg 96%
    06:00 +7°C° 0 mm 2 mps 740 mmHg 93%
    07:00 +8°C° 0 mm 2 mps 740 mmHg 89%
    08:00 +9°C° 0 mm 2 mps 740 mmHg 86%
    09:00 +10°C° 0 mm 2 mps 740 mmHg 83%
    10:00 +11°C° 0 mm 3 mps 739 mmHg 80%
    11:00 +11°C° 0 mm 3 mps 739 mmHg 77%
    12:00 +11°C° 1.1 mm 3 mps 738 mmHg 81%
    13:00 +10°C° 1.1 mm 3 mps 738 mmHg 86%
    14:00 +10°C° 1.1 mm 3 mps 737 mmHg 90%
    15:00 +8°C° 2.2 mm 4 mps 736 mmHg 92%
    16:00 +8°C° 2.2 mm 4 mps 735 mmHg 93%
    17:00 +7°C° 2.2 mm 4 mps 734 mmHg 94%
    18:00 +7°C° 2.3 mm 4 mps 733 mmHg 95%
    19:00 +7°C° 2.3 mm 5 mps 732 mmHg 95%
    20:00 +7°C° 2.3 mm 5 mps 731 mmHg 95%
    21:00 +7°C° 3.2 mm 5 mps 729 mmHg 95%
    22:00 +7°C° 3.2 mm 5 mps 728 mmHg 95%
    23:00 +5°C° 3.2 mm 6 mps 727 mmHg 95%

    25 September, Tuesday

    Time Temperature Precipitation Wind Pressure Humidity
    00:00 +5°C° 2.5 mm 6 mps 727 mmHg 94%
    01:00 +5°C° 2.5 mm 7 mps 727 mmHg 94%
    02:00 +5°C° 2.5 mm 7 mps 727 mmHg 93%
    03:00 +5°C° 1.2 mm 7 mps 727 mmHg 92%
    04:00 +5°C° 1.2 mm 8 mps 728 mmHg 91%
    05:00 +5°C° 1.2 mm 9 mps 728 mmHg 90%
    06:00 +5°C° 1.1 mm 9 mps 729 mmHg 89%
    07:00 +5°C° 1.1 mm 9 mps 730 mmHg 88%
    08:00 +5°C° 1.1 mm 9 mps 731 mmHg 87%
    09:00 +5°C° 0.8 mm 9 mps 733 mmHg 86%
    10:00 +5°C° 0.8 mm 9 mps 734 mmHg 85%
    11:00 +5°C° 0.8 mm 9 mps 735 mmHg 84%
    12:00 +5°C° 0.3 mm 9 mps 736 mmHg 82%
    13:00 +5°C° 0.3 mm 8 mps 737 mmHg 79%
    14:00 +6°C° 0.3 mm 8 mps 738 mmHg 77%
    15:00 +5°C° 0.1 mm 7 mps 739 mmHg 76%
    16:00 +5°C° 0.1 mm 7 mps 740 mmHg 76%
    17:00 +5°C° 0.1 mm 6 mps 741 mmHg 75%
    18:00 +5°C° 0 mm 6 mps 742 mmHg 76%
    19:00 +4°C° 0 mm 6 mps 743 mmHg 77%
    20:00 +5°C° 0 mm 5 mps 744 mmHg 78%
    21:00 +3°C° 0 mm 5 mps 745 mmHg 78%
    22:00 +2°C° 0 mm 5 mps 745 mmHg 77%
    23:00 +3°C° 0 mm 4 mps 746 mmHg 77%

    26 September, Wednesday

    Time Temperature Precipitation Wind Pressure Humidity
    00:00 +1°C° 0 mm 4 mps 747 mmHg 77%
    01:00 +1°C° 0 mm 4 mps 747 mmHg 77%
    02:00 0°C° 0 mm 4 mps 748 mmHg 77%
    03:00 0°C° 0 mm 4 mps 748 mmHg 80%
    04:00 0°C° 0 mm 4 mps 748 mmHg 83%
    05:00 0°C° 0 mm 4 mps 748 mmHg 86%
    06:00 +1°C° 0 mm 4 mps 748 mmHg 84%
    07:00 +2°C° 0 mm 5 mps 748 mmHg 82%
    08:00 +3°C° 0 mm 5 mps 748 mmHg 81%
    09:00 +5°C° 0.1 mm 5 mps 748 mmHg 79%
    10:00 +6°C° 0.1 mm 5 mps 747 mmHg 78%
    11:00 +7°C° 0.1 mm 5 mps 747 mmHg 77%
    12:00 +7°C° 0.2 mm 5 mps 747 mmHg 79%
    13:00 +7°C° 0.2 mm 6 mps 746 mmHg 82%
    14:00 +7°C° 0.2 mm 6 mps 746 mmHg 84%
    15:00 +7°C° 0.3 mm 6 mps 745 mmHg 86%
    16:00 +8°C° 0.3 mm 6 mps 745 mmHg 87%
    17:00 +8°C° 0.3 mm 6 mps 744 mmHg 89%
    18:00 +7°C° 0.4 mm 6 mps 743 mmHg 89%
    19:00 +7°C° 0.4 mm 6 mps 743 mmHg 90%
    20:00 +6°C° 0.4 mm 7 mps 742 mmHg 90%
    21:00 +6°C° 0.6 mm 7 mps 742 mmHg 90%
    22:00 +6°C° 0.6 mm 7 mps 741 mmHg 89%
    23:00 +6°C° 0.6 mm 8 mps 740 mmHg 89%

    27 September, Thursday

    Time Temperature Precipitation Wind Pressure Humidity
    00:00 +6°C° 0.4 mm 8 mps 739 mmHg 89%
    01:00 +5°C° 0.4 mm 8 mps 739 mmHg 89%
    02:00 +5°C° 0.4 mm 8 mps 738 mmHg 89%
    03:00 +5°C° 0.3 mm 8 mps 737 mmHg 89%
    04:00 +6°C° 0.3 mm 8 mps 737 mmHg 89%
    05:00 +6°C° 0.3 mm 8 mps 736 mmHg 89%
    06:00 +6°C° 0.2 mm 8 mps 736 mmHg 89%
    07:00 +7°C° 0.2 mm 8 mps 735 mmHg 89%
    08:00 +7°C° 0.2 mm 8 mps 735 mmHg 89%
    09:00 +9°C° 0.3 mm 8 mps 734 mmHg 88%
    10:00 +9°C° 0.3 mm 8 mps 734 mmHg 87%
    11:00 +10°C° 0.3 mm 8 mps 734 mmHg 86%
    12:00 +10°C° 0.6 mm 7 mps 734 mmHg 85%
    13:00 +10°C° 0.6 mm 7 mps 734 mmHg 84%
    14:00 +10°C° 0.6 mm 7 mps 733 mmHg 83%
    15:00 +10°C° 0.5 mm 6 mps 733 mmHg 83%
    16:00 +9°C° 0.5 mm 6 mps 733 mmHg 82%
    17:00 +9°C° 0.5 mm 5 mps 733 mmHg 82%
    18:00 +8°C° 0 mm 5 mps 734 mmHg 82%
    19:00 +7°C° 0 mm 5 mps 734 mmHg 83%
    20:00 +7°C° 0 mm 4 mps 734 mmHg 83%
    21:00 +6°C° 0 mm 5 mps 735 mmHg 83%
    22:00 +6°C° 0 mm 5 mps 735 mmHg 82%
    23:00 +5°C° 0 mm 5 mps 735 mmHg 82%
    Show more